Weather History for Cody, WY

Change the Weather History Date:

Saturday, August 30, 2014

  Actual Average Record
Temperature  
Mean Temperature 62 °F -  
Max Temperature 71 °F 80 °F 98 °F (1985)
Min Temperature 53 °F 50 °F 38 °F (1962)
Degree Days  
Heating Degree Days 3    
Growing Degree Days 12 (Base 50)    
Moisture  
Dew Point 47 °F    
Average Humidity 60    
Maximum Humidity 88    
Minimum Humidity 45    
Precipitation  
Precipitation 0.43 in - - ()
Sea Level Pressure  
Sea Level Pressure 29.91 in    
Wind  
Wind Speed 5 mph (West)    
Max Wind Speed 15 mph    
Max Gust Speed 39 mph    
Visibility 10 miles    
Events Thunderstorm    
Averages and records for this station are not official NWS values.
T = Trace of Precipitation, MM = Missing Value Source: NWS Daily Summary

Daily Weather History Graph

Daily Weather History Graph

Search for Another Location

Airport:

Trip Planner

Search our weather history database for the weather conditions in past years. The results will help you decide how hot, cold, wet, or windy it might be!

Date:

Astronomy

Aug. 30, 2014 Rise Set
Actual Time 6:36 AM MDT 7:56 PM MDT
Civil Twilight 6:06 AM MDT 8:26 PM MDT
Nautical Twilight 5:29 AM MDT 9:02 PM MDT
Astronomical Twilight 4:51 AM MDT 9:40 PM MDT
Moon 11:40 AM MDT (8/30) 10:18 PM MDT (8/30)
Length of Visible Light 14h 19m
Length of Day
13h 19m
Waxing Crescent, 23% of the Moon is Illuminated
Aug 30
Waxing Crescent
Sep 2
First Quarter
Sep 8
Full
Sep 15
Last Quarter
Sep 24
New

Hourly Weather History & Observations

Time (MDT) Temp. Dew Point Humidity Pressure Visibility Wind Dir Wind Speed Gust Speed Precip Events Conditions
12:15 AM 59.0 °F 46.4 °F 63% 29.97 in 10.0 mi Calm Calm - N/A   Clear
12:35 AM 57.2 °F 46.4 °F 67% 29.97 in 10.0 mi NNW 3.5 mph - N/A   Clear
12:55 AM 60.8 °F 46.4 °F 59% 29.96 in 10.0 mi Calm Calm - N/A   Clear
1:15 AM 57.2 °F 46.4 °F 67% 29.96 in 10.0 mi Calm Calm - N/A   Clear
1:35 AM 59.0 °F 46.4 °F 63% 29.96 in 10.0 mi Calm Calm - N/A   Clear
1:55 AM 57.2 °F 44.6 °F 63% 29.95 in 10.0 mi SSE 6.9 mph - N/A   Clear
2:15 AM 59.0 °F 44.6 °F 59% 29.95 in 10.0 mi SW 4.6 mph - N/A   Clear
2:35 AM 55.4 °F 44.6 °F 67% 29.94 in 10.0 mi NNW 4.6 mph - N/A   Clear
2:55 AM 59.0 °F 44.6 °F 59% 29.94 in 10.0 mi Calm Calm - N/A   Clear
3:15 AM 60.8 °F 42.8 °F 52% 29.93 in 10.0 mi SSE 11.5 mph - N/A   Clear
3:35 AM 60.8 °F 44.6 °F 55% 29.93 in 10.0 mi West 3.5 mph - N/A   Clear
3:55 AM 62.6 °F 44.6 °F 52% 29.93 in 10.0 mi South 4.6 mph - N/A   Clear
4:15 AM 64.4 °F 44.6 °F 49% 29.93 in 10.0 mi WSW 8.1 mph - N/A   Clear
4:35 AM 64.4 °F 42.8 °F 45% 29.92 in 10.0 mi SSW 11.5 mph - N/A   Clear
4:55 AM 64.4 °F 44.6 °F 49% 29.91 in 10.0 mi SW 6.9 mph - N/A   Partly Cloudy
5:15 AM 64.4 °F 44.6 °F 49% 29.92 in 10.0 mi SW 10.4 mph - N/A   Partly Cloudy
5:35 AM 66.2 °F 44.6 °F 46% 29.91 in 10.0 mi SW 6.9 mph - N/A   Clear
5:55 AM 66.2 °F 44.6 °F 46% 29.90 in 10.0 mi SW 6.9 mph - N/A   Clear
6:15 AM 64.4 °F 44.6 °F 49% 29.90 in 10.0 mi SSW 6.9 mph - N/A   Partly Cloudy
6:35 AM 60.8 °F 44.6 °F 55% 29.90 in 10.0 mi South 9.2 mph - N/A   Partly Cloudy
6:55 AM 60.8 °F 44.6 °F 55% 29.90 in 10.0 mi SSE 6.9 mph - N/A   Clear
7:15 AM 60.8 °F 44.6 °F 55% 29.89 in 10.0 mi ESE 5.8 mph - N/A   Clear
7:35 AM 60.8 °F 44.6 °F 55% 29.89 in 10.0 mi SE 3.5 mph - N/A   Partly Cloudy
7:55 AM 62.6 °F 44.6 °F 52% 29.90 in 10.0 mi SW 5.8 mph - N/A   Mostly Cloudy
8:15 AM 62.6 °F 46.4 °F 55% 29.88 in 10.0 mi South 4.6 mph - N/A   Mostly Cloudy
8:55 AM 64.4 °F 48.2 °F 56% 29.89 in 10.0 mi West 3.5 mph - N/A   Mostly Cloudy
9:15 AM 64.4 °F 48.2 °F 56% 29.89 in 10.0 mi Calm Calm - N/A   Overcast
9:35 AM 60.8 °F 48.2 °F 63% 29.90 in 10.0 mi NNE 6.9 mph - N/A   Overcast
9:55 AM 60.8 °F 46.4 °F 59% 29.90 in 10.0 mi NE 5.8 mph - N/A   Mostly Cloudy
10:15 AM 66.2 °F 46.4 °F 49% 29.89 in 10.0 mi ENE 10.4 mph - N/A   Partly Cloudy
10:35 AM 64.4 °F 50.0 °F 59% 29.89 in 10.0 mi NNE 9.2 mph - N/A   Mostly Cloudy
10:55 AM 66.2 °F 50.0 °F 56% 29.89 in 10.0 mi North 12.7 mph 21.9 mph N/A   Mostly Cloudy
11:15 AM - - N/A% 29.88 in 10.0 mi NNE 12.7 mph 18.4 mph N/A   Mostly Cloudy
11:35 AM - - N/A% 29.87 in 10.0 mi NE 12.7 mph - N/A   Partly Cloudy
11:55 AM - - N/A% 29.86 in 10.0 mi NNE 11.5 mph - N/A   Clear
12:15 PM - - N/A% 29.85 in 10.0 mi NNE 10.4 mph - N/A   Clear
12:35 PM - - N/A% 29.84 in 10.0 mi NNE 6.9 mph - N/A   Clear
12:55 PM 71.6 °F 50.0 °F 46% 29.83 in 10.0 mi NNE 8.1 mph - N/A   Partly Cloudy
1:15 PM 71.6 °F 50.0 °F 46% 29.82 in 10.0 mi NE 12.7 mph 17.3 mph N/A   Partly Cloudy
1:55 PM 59.0 °F 48.2 °F 67% 29.93 in 7.0 mi West 15.0 mph 39.1 mph 0.05 in Thunderstorm Thunderstorm
2:15 PM 53.6 °F 48.2 °F 82% 29.90 in 10.0 mi North 8.1 mph - 0.29 in Thunderstorm Thunderstorm
2:35 PM 55.4 °F 50.0 °F 82% 29.92 in 10.0 mi NNW 5.8 mph - 0.29 in Thunderstorm Overcast
2:55 PM 55.4 °F 51.8 °F 88% 29.91 in 10.0 mi NE 8.1 mph - 0.31 in Thunderstorm Mostly Cloudy
3:15 PM 57.2 °F 51.8 °F 82% 29.91 in 10.0 mi NNE 4.6 mph - N/A   Mostly Cloudy
3:35 PM 59.0 °F 48.2 °F 67% 29.92 in 10.0 mi NNW 3.5 mph - N/A Thunderstorm Overcast
3:55 PM 57.2 °F 51.8 °F 82% 29.93 in 9.0 mi SSW 5.8 mph - 0.04 in Thunderstorm Thunderstorm
4:15 PM 57.2 °F 50.0 °F 77% 29.93 in 8.0 mi Calm Calm - 0.03 in   Overcast
4:35 PM 59.0 °F 46.4 °F 63% 29.91 in 10.0 mi Calm Calm - 0.03 in   Overcast
4:55 PM 57.2 °F 46.4 °F 67% 29.93 in 10.0 mi WSW 12.7 mph 19.6 mph 0.03 in   Overcast
5:15 PM 55.4 °F 46.4 °F 72% 29.91 in 10.0 mi SW 13.8 mph 26.5 mph N/A   Overcast
5:35 PM 55.4 °F 44.6 °F 67% 29.89 in 10.0 mi WSW 10.4 mph 24.2 mph N/A   Overcast
5:55 PM 55.4 °F 44.6 °F 67% 29.90 in 10.0 mi North 6.9 mph - N/A   Scattered Clouds
6:15 PM 59.0 °F 44.6 °F 59% 29.90 in 10.0 mi West 8.1 mph 24.2 mph N/A   Partly Cloudy
6:35 PM - - N/A% - - North - - N/A   Unknown
6:55 PM - - N/A% - - North - - N/A   Unknown
7:35 PM - - N/A% - - North - - N/A   Unknown
7:55 PM - - N/A% - - North - - N/A   Unknown
8:15 PM - - N/A% - - North - - N/A   Unknown
8:35 PM - - N/A% - - North - - N/A   Unknown
8:55 PM - - N/A% - - North - - N/A   Unknown
9:15 PM - - N/A% - - North - - N/A   Unknown
9:35 PM - - N/A% - - North - - N/A   Unknown
9:55 PM - - N/A% - - North - - N/A   Unknown
10:15 PM - - N/A% - - North - - N/A   Unknown
10:35 PM - - N/A% - - North - - N/A   Unknown
10:55 PM - - N/A% - - North - - N/A   Unknown
11:15 PM - - N/A% - - North - - N/A   Unknown
11:35 PM - - N/A% - - North - - N/A   Unknown
11:55 PM - - N/A% - - North - - N/A   Unknown